#�ϑ�����,���ϕ���,���ϕ���,�ő啗��,�ő啗����������,�ő�u�ԕ���,�ő�u�ԕ�����������
#(�N����),(m/s)   ,(16����),(m/s)   ,(16����)        ,(m/s)       ,(16����)            
2015/4/11 0:01,0.6,16,0.6,1,0.8,16
2015/4/11 0:02,0.6,16,0.6,1,0.8,16
2015/4/11 0:03,0.7,16,0.7,16,1.4,16
2015/4/11 0:04,0.8,16,0.8,16,2,16
2015/4/11 0:05,0.9,16,0.9,16,2,16
2015/4/11 0:06,1,16,1,16,2,1
2015/4/11 0:07,1,16,1,16,1.5,1
2015/4/11 0:08,1,16,1,16,1.4,2
2015/4/11 0:09,1,1,1,16,1,2
2015/4/11 0:10,1,1,1,16,1.1,3
2015/4/11 0:11,1,2,1,16,0.8,7
2015/4/11 0:12,1,2,1,16,0.6,7
2015/4/11 0:13,0.9,3,1,16,0.6,4
2015/4/11 0:14,0.9,3,0.9,16,0.9,6
2015/4/11 0:15,0.8,4,0.9,16,1.1,6
2015/4/11 0:16,0.7,5,0.8,16,0.8,6
2015/4/11 0:17,0.6,5,0.7,16,0.5,9
2015/4/11 0:18,0.5,6,0.6,16,0.9,9
2015/4/11 0:19,0.5,6,0.5,1,0.9,9
2015/4/11 0:20,0.4,7,0.5,1,0.9,9
2015/4/11 0:21,0.4,7,0.4,2,0.6,7
2015/4/11 0:22,0.4,7,0.4,2,1.1,8
2015/4/11 0:23,0.5,8,0.5,3,1.3,9
2015/4/11 0:24,0.5,8,0.5,4,1.4,9
2015/4/11 0:25,0.5,8,0.5,4,1.5,7
2015/4/11 0:26,0.6,8,0.6,5,1.8,8
2015/4/11 0:27,0.7,8,0.7,8,1.6,8
2015/4/11 0:28,0.7,8,0.7,8,1.4,6
2015/4/11 0:29,0.8,7,0.8,8,1.6,6
2015/4/11 0:30,0.9,7,0.9,7,2.2,5
2015/4/11 0:31,1.1,7,1.1,7,2.2,4
2015/4/11 0:32,1.1,6,1.1,7,2,5
2015/4/11 0:33,1.2,6,1.2,6,2.7,4
2015/4/11 0:34,1.3,6,1.3,6,2.5,4
2015/4/11 0:35,1.3,5,1.3,6,1.5,5
2015/4/11 0:36,1.3,5,1.3,6,1.3,5
2015/4/11 0:37,1.3,5,1.3,6,1.3,3
2015/4/11 0:38,1.3,5,1.3,6,0.9,2
2015/4/11 0:39,1.3,4,1.3,6,2.4,4
2015/4/11 0:40,1.3,4,1.3,6,2.5,3
2015/4/11 0:41,1.2,4,1.3,6,2.7,3
2015/4/11 0:42,1.2,4,1.2,6,2,1
2015/4/11 0:43,1.2,3,1.3,6,2.2,16
2015/4/11 0:44,1.3,3,1.3,6,3.8,3
2015/4/11 0:45,1.4,3,1.4,3,3.6,3
2015/4/11 0:46,1.5,3,1.5,3,2.2,5
2015/4/11 0:47,1.6,3,1.6,3,3.6,4
2015/4/11 0:48,1.8,3,1.8,3,3.2,2
2015/4/11 0:49,1.8,3,1.8,3,2.7,5
2015/4/11 0:50,1.8,3,1.8,3,2,3
2015/4/11 0:51,1.7,3,1.7,3,1.5,4
2015/4/11 0:52,1.6,4,1.7,3,0.8,7
2015/4/11 0:53,1.5,5,1.6,3,1,10
2015/4/11 0:54,1.3,5,1.5,3,0.5,10
2015/4/11 0:55,1.1,5,1.3,3,0.9,13
2015/4/11 0:56,1,5,1.1,3,0.5,14
2015/4/11 0:57,0.9,6,1,3,1.1,10
2015/4/11 0:58,0.7,7,0.8,3,2.2,9
2015/4/11 0:59,0.7,8,0.7,3,3,10
2015/4/11 1:00,0.7,9,0.7,3,2.2,7
2015/4/11 1:01,0.8,9,0.8,4,2.2,9
2015/4/11 1:02,0.8,9,0.8,4,2,8
2015/4/11 1:03,0.9,10,0.9,5,1.9,8
2015/4/11 1:04,0.9,10,0.9,5,1.3,11
2015/4/11 1:05,1.1,10,1.1,5,3.8,15
2015/4/11 1:06,1.2,10,1.2,10,3.7,13
2015/4/11 1:07,1.3,9,1.3,10,2.4,9
2015/4/11 1:08,1.4,10,1.4,9,3.9,8
2015/4/11 1:09,1.3,10,1.4,9,1.9,10
2015/4/11 1:10,1.3,11,1.3,9,1.4,12
2015/4/11 1:11,1.2,12,1.3,9,1.3,12
2015/4/11 1:12,1.1,12,1.2,9,1.1,8
2015/4/11 1:13,1.2,13,1.2,9,4.9,16
2015/4/11 1:14,1.3,13,1.3,9,3.6,16
2015/4/11 1:15,1.5,13,1.5,13,4.3,1
2015/4/11 1:16,1.6,16,1.6,15,4.4,2
2015/4/11 1:17,1.8,1,1.8,16,4.1,5
2015/4/11 1:18,2,2,2,2,5.1,7
2015/4/11 1:19,2.2,4,2.2,3,5.5,4
2015/4/11 1:20,2.5,4,2.5,4,5.4,5
2015/4/11 1:21,2.7,4,2.7,4,5,1
2015/4/11 1:22,3,3,3,3,5.7,1
2015/4/11 1:23,3,4,3.1,3,2.2,7
2015/4/11 1:24,3,4,3,3,2.7,5
2015/4/11 1:25,2.9,5,3,3,4.2,6
2015/4/11 1:26,2.9,5,2.9,3,3.7,6
2015/4/11 1:27,2.7,5,2.9,3,3.3,6
2015/4/11 1:28,2.5,5,2.7,3,3.5,8
2015/4/11 1:29,2.5,5,2.5,3,4.2,7
2015/4/11 1:30,2.4,6,2.4,3,4.2,8
2015/4/11 1:31,2.3,6,2.4,3,2.9,8
2015/4/11 1:32,2.2,7,2.2,3,3.8,8
2015/4/11 1:33,2.2,7,2.2,4,3.5,8
2015/4/11 1:34,2.1,7,2.2,4,1.3,11
2015/4/11 1:35,1.9,8,2.1,5,1.1,10
2015/4/11 1:36,1.6,8,1.8,5,1.6,15
2015/4/11 1:37,1.5,9,1.6,5,0.6,16
2015/4/11 1:38,1.4,9,1.5,5,0.1,15
2015/4/11 1:39,1.1,10,1.3,5,0.3,14
2015/4/11 1:40,0.9,11,1,6,2.9,10
2015/4/11 1:41,0.9,11,0.9,6,2.7,9
2015/4/11 1:42,0.9,11,1,7,3.6,8
2015/4/11 1:43,1.1,11,1.1,7,4.9,9
2015/4/11 1:44,1.2,10,1.2,7,4.2,10
2015/4/11 1:45,1.3,10,1.3,8,3.5,9
2015/4/11 1:46,1.3,10,1.3,8,3.1,9
2015/4/11 1:47,1.5,9,1.5,9,2.6,10
2015/4/11 1:48,1.6,9,1.6,9,3.5,10
2015/4/11 1:49,1.8,9,1.8,9,3,9
2015/4/11 1:50,1.8,9,1.8,9,3.2,9
2015/4/11 1:51,1.7,9,1.8,9,2.1,12
2015/4/11 1:52,1.7,9,1.7,9,3,10
2015/4/11 1:53,1.6,10,1.7,9,3.9,9
2015/4/11 1:54,1.6,10,1.6,9,3.9,12
2015/4/11 1:55,1.7,10,1.7,9,3.7,12
2015/4/11 1:56,1.6,10,1.7,9,1.9,9
2015/4/11 1:57,1.6,10,1.6,9,1.5,8
2015/4/11 1:58,1.5,10,1.6,9,4.4,9
2015/4/11 1:59,1.6,10,1.7,9,4.3,8
2015/4/11 2:00,1.7,10,1.7,9,4.5,8
2015/4/11 2:01,1.9,10,1.9,10,5.5,8
2015/4/11 2:02,1.9,10,1.9,10,5.5,9
2015/4/11 2:03,2,10,2,10,4.8,13
2015/4/11 2:04,2,10,2.1,10,3.3,9
2015/4/11 2:05,2.1,10,2.1,10,5.1,13
2015/4/11 2:06,2.1,10,2.1,10,2.2,13
2015/4/11 2:07,2.2,10,2.2,10,3.2,9
2015/4/11 2:08,2.2,11,2.3,11,3.8,9
2015/4/11 2:09,2.1,10,2.2,11,3,9
2015/4/11 2:10,1.9,11,2.1,11,1.4,10
2015/4/11 2:11,1.7,11,1.9,11,3,7
2015/4/11 2:12,1.5,11,1.6,11,1.9,13
2015/4/11 2:13,1.4,11,1.4,11,3.3,9
2015/4/11 2:14,1.3,11,1.4,11,3.3,9
2015/4/11 2:15,1.1,10,1.3,11,2.7,10
2015/4/11 2:16,1.2,10,1.2,11,4.9,9
2015/4/11 2:17,1.5,10,1.5,11,6.4,8
2015/4/11 2:18,1.6,10,1.6,11,6,9
2015/4/11 2:19,1.8,10,1.8,10,5.2,9
2015/4/11 2:20,1.9,10,1.9,11,5,9
2015/4/11 2:21,2,10,2,10,4.7,10
2015/4/11 2:22,2.1,10,2.1,10,4.2,10
2015/4/11 2:23,2.1,10,2.2,10,4.1,9
2015/4/11 2:24,2.1,10,2.1,10,3,9
2015/4/11 2:25,2.2,10,2.2,10,4.1,9
2015/4/11 2:26,2,10,2.2,10,2,10
2015/4/11 2:27,1.8,10,2,10,2.7,14
2015/4/11 2:28,1.6,10,1.8,10,3,16
2015/4/11 2:29,1.6,11,1.7,10,2.4,16
2015/4/11 2:30,1.5,12,1.6,10,2.4,16
2015/4/11 2:31,1.4,13,1.5,10,1.6,3
2015/4/11 2:32,1.3,14,1.4,10,1,5
2015/4/11 2:33,1.2,1,1.3,10,1,7
2015/4/11 2:34,1.2,4,1.2,10,2.5,8
2015/4/11 2:35,1.3,6,1.3,10,2.5,8
2015/4/11 2:36,1.3,6,1.3,10,2.9,9
2015/4/11 2:37,1.3,6,1.4,10,2.9,9
2015/4/11 2:38,1.4,7,1.4,10,2.6,8
2015/4/11 2:39,1.4,8,1.4,11,3.7,9
2015/4/11 2:40,1.5,8,1.5,12,3.5,9
2015/4/11 2:41,1.6,8,1.6,8,3.5,8
2015/4/11 2:42,1.7,8,1.7,8,2.4,8
2015/4/11 2:43,1.9,8,1.9,8,3.8,7
2015/4/11 2:44,2,8,2,8,3.7,8
2015/4/11 2:45,2,8,2,8,3.3,8
2015/4/11 2:46,2.1,8,2.1,8,3.7,8
2015/4/11 2:47,2.1,8,2.1,8,2.7,8
2015/4/11 2:48,2,8,2.1,8,2.9,8
2015/4/11 2:49,1.9,8,2,8,3,10
2015/4/11 2:50,1.8,8,1.9,8,2.9,9
2015/4/11 2:51,1.9,8,1.9,8,5.5,9
2015/4/11 2:52,2,9,2,8,4.3,9
2015/4/11 2:53,1.9,9,2.1,8,4.3,7
2015/4/11 2:54,1.7,9,1.9,8,0.9,16
2015/4/11 2:55,1.5,9,1.7,8,1.3,3
2015/4/11 2:56,1.4,8,1.5,8,1.8,5
2015/4/11 2:57,1.3,8,1.4,8,0.6,8
2015/4/11 2:58,1.2,8,1.3,9,1.5,1
2015/4/11 2:59,1.1,8,1.2,9,2,16
2015/4/11 3:00,1.1,8,1.1,9,1.1,15
2015/4/11 3:01,0.8,8,1,9,0.9,9
2015/4/11 3:02,0.6,4,0.8,9,1.5,10
2015/4/11 3:03,0.5,8,0.6,9,1.3,10
2015/4/11 3:04,0.5,10,0.5,9,1.3,11
2015/4/11 3:05,0.6,11,0.6,9,1.5,11
2015/4/11 3:06,0.6,12,0.6,8,1.3,10
2015/4/11 3:07,0.7,12,0.7,8,1.9,9
2015/4/11 3:08,0.8,11,0.8,8,2.6,10
2015/4/11 3:09,0.7,11,0.8,8,2.1,10
2015/4/11 3:10,0.8,10,0.8,8,2.7,9
2015/4/11 3:11,0.9,10,0.9,10,1.6,9
2015/4/11 3:12,1,10,1,10,1.9,10
2015/4/11 3:13,1,10,1,10,1.3,13
2015/4/11 3:14,1,10,1,10,1.4,8
2015/4/11 3:15,0.9,9,1,10,1.3,8
2015/4/11 3:16,0.9,9,0.9,10,0.3,9
2015/4/11 3:17,0.8,10,0.8,10,0,14
2015/4/11 3:18,0.7,10,0.8,10,0.8,13
2015/4/11 3:19,0.7,10,0.7,10,1.3,12
2015/4/11 3:20,0.7,11,0.7,10,1.9,10
2015/4/11 3:21,0.6,11,0.7,10,0.9,6
2015/4/11 3:22,0.6,10,0.6,10,1.1,9
2015/4/11 3:23,0.5,10,0.6,10,0.8,10
2015/4/11 3:24,0.4,11,0.5,10,0.1,16
2015/4/11 3:25,0.5,11,0.5,9,2,8
2015/4/11 3:26,0.6,10,0.6,9,2.9,8
2015/4/11 3:27,1,10,1,10,3.7,8
2015/4/11 3:28,1.3,9,1.3,9,3.6,8
2015/4/11 3:29,1.4,9,1.4,9,3.5,9
2015/4/11 3:30,1.5,9,1.5,9,3.2,9
2015/4/11 3:31,1.6,9,1.6,9,3.1,8
2015/4/11 3:32,1.7,9,1.7,9,2.6,8
2015/4/11 3:33,1.9,9,1.9,9,2.6,9
2015/4/11 3:34,2,9,2,9,2.4,10
2015/4/11 3:35,1.9,9,2,9,1.9,9
2015/4/11 3:36,1.8,9,1.9,9,2,12
2015/4/11 3:37,1.7,9,1.8,9,2.5,13
2015/4/11 3:38,1.5,10,1.7,9,2,16
2015/4/11 3:39,1.5,10,1.5,9,2.6,15
2015/4/11 3:40,1.4,11,1.5,9,2.2,16
2015/4/11 3:41,1.3,12,1.4,9,1.4,16
2015/4/11 3:42,1.2,14,1.3,9,1,1
2015/4/11 3:43,1.1,15,1.2,9,0.8,1
2015/4/11 3:44,1,15,1,9,0.5,12
2015/4/11 3:45,0.9,15,1,9,0.5,13
2015/4/11 3:46,0.9,15,0.9,9,0.9,2
2015/4/11 3:47,0.8,16,0.9,9,1.3,2
2015/4/11 3:48,0.7,1,0.8,10,1.8,2
2015/4/11 3:49,0.6,1,0.7,10,0.9,3
2015/4/11 3:50,0.5,2,0.6,11,0.8,2
2015/4/11 3:51,0.6,2,0.6,12,1.6,6
2015/4/11 3:52,0.7,3,0.7,14,1.8,5
2015/4/11 3:53,0.7,3,0.7,15,1.3,4
2015/4/11 3:54,0.8,3,0.8,15,0.8,3
2015/4/11 3:55,0.8,4,0.8,15,1.4,9
2015/4/11 3:56,0.9,4,0.9,15,1.5,9
2015/4/11 3:57,0.8,5,0.9,4,0.5,9
2015/4/11 3:58,0.7,5,0.8,4,0.5,14
2015/4/11 3:59,0.7,5,0.7,4,0.9,10
2015/4/11 4:00,0.7,5,0.7,4,1.4,9
2015/4/11 4:01,0.7,5,0.8,4,1.4,1
2015/4/11 4:02,0.6,6,0.7,4,2.1,8
2015/4/11 4:03,0.7,7,0.7,4,2.2,8
2015/4/11 4:04,0.7,7,0.7,4,2.5,3
2015/4/11 4:05,0.7,5,0.8,4,3.9,3
2015/4/11 4:06,0.7,4,0.7,4,1.5,5
2015/4/11 4:07,1,4,1,4,3.2,5
2015/4/11 4:08,1.1,5,1.1,5,2.6,4
2015/4/11 4:09,1.1,5,1.1,5,1,9
2015/4/11 4:10,1.2,5,1.2,5,3.5,8
2015/4/11 4:11,1.2,6,1.2,5,2.5,8
2015/4/11 4:12,1.3,6,1.4,6,2.6,6
2015/4/11 4:13,1.4,6,1.4,6,2.2,6
2015/4/11 4:14,1.4,6,1.4,6,2.2,3
2015/4/11 4:15,1.4,6,1.4,6,1.9,3
2015/4/11 4:16,1.4,6,1.4,6,2,8
2015/4/11 4:17,1.2,6,1.4,6,1.4,6
2015/4/11 4:18,1.2,7,1.2,6,1.8,7
2015/4/11 4:19,1.3,7,1.3,6,1.8,7
2015/4/11 4:20,1.2,7,1.3,6,2,6
2015/4/11 4:21,1.2,6,1.2,6,3.2,5
2015/4/11 4:22,1.2,7,1.3,6,2.7,8
2015/4/11 4:23,1.1,7,1.2,6,1.3,16
2015/4/11 4:24,1,8,1.1,6,0.9,12
2015/4/11 4:25,1,8,1,6,2.4,9
2015/4/11 4:26,1,8,1,6,1.9,10
2015/4/11 4:27,1.1,9,1.1,7,2.1,11
2015/4/11 4:28,1.1,9,1.1,7,1.6,13
2015/4/11 4:29,1.1,10,1.1,7,1.3,11
2015/4/11 4:30,1.1,10,1.1,6,1.8,10
2015/4/11 4:31,0.9,10,1,6,1.5,8
2015/4/11 4:32,0.9,10,0.9,7,1.8,8
2015/4/11 4:33,0.9,10,0.9,7,1.9,8
2015/4/11 4:34,1,10,1,8,2.2,16
2015/4/11 4:35,1.6,11,1.6,11,12.3,16
2015/4/11 4:36,1.8,11,1.8,11,9,1
2015/4/11 4:37,1.9,12,1.9,12,5.4,16
2015/4/11 4:38,2,13,2,13,3.9,15
2015/4/11 4:39,2.2,15,2.2,14,5,15
2015/4/11 4:40,2.4,16,2.4,16,5.2,16
2015/4/11 4:41,2.5,16,2.5,16,5.2,4
2015/4/11 4:42,2.7,16,2.7,16,6.3,1
2015/4/11 4:43,2.9,16,2.9,16,5.8,1
2015/4/11 4:44,3,1,3,1,6.2,16
2015/4/11 4:45,2.6,1,3,1,4.9,4
2015/4/11 4:46,2.6,1,2.6,1,8.4,15
2015/4/11 4:47,2.7,1,2.7,1,8.7,1
2015/4/11 4:48,2.7,1,2.8,1,3,3
2015/4/11 4:49,2.7,2,2.7,1,3.7,2
2015/4/11 4:50,2.7,2,2.7,1,3.3,4
2015/4/11 4:51,2.8,2,2.8,1,6.3,14
2015/4/11 4:52,2.7,2,2.8,1,4.3,14
2015/4/11 4:53,2.5,2,2.7,1,2.9,15
2015/4/11 4:54,2.4,2,2.6,1,4.7,1
2015/4/11 4:55,2.4,1,2.4,1,5.1,2
2015/4/11 4:56,2.4,2,2.5,1,7.1,4
2015/4/11 4:57,2.3,2,2.4,1,8.2,2
2015/4/11 4:58,2.5,2,2.5,2,6,16
2015/4/11 4:59,2.6,2,2.6,2,5.7,1
2015/4/11 5:00,2.5,1,2.6,2,3,2
2015/4/11 5:01,2.3,2,2.5,2,3.3,1
2015/4/11 5:02,2.3,2,2.3,2,2.6,16
2015/4/11 5:03,2.3,2,2.3,2,3.1,1
2015/4/11 5:04,2.4,2,2.4,2,5.1,1
2015/4/11 5:05,2.5,2,2.5,2,5.5,4
2015/4/11 5:06,2.5,2,2.5,2,6,4
2015/4/11 5:07,2.5,2,2.5,2,3.8,3
2015/4/11 5:08,2.3,2,2.5,2,2.9,1
2015/4/11 5:09,2.2,2,2.3,2,4.3,3
2015/4/11 5:10,2.4,2,2.4,1,4.9,5
2015/4/11 5:11,2.6,3,2.6,2,6.1,3
2015/4/11 5:12,2.6,3,2.6,2,3.2,4
2015/4/11 5:13,2.6,3,2.6,2,3.3,16
2015/4/11 5:14,2.7,3,2.7,3,6.1,1
2015/4/11 5:15,3,3,3,3,9,4
2015/4/11 5:16,3,3,3,3,6,3
2015/4/11 5:17,3.1,3,3.1,3,7.6,2
2015/4/11 5:18,3.3,3,3.3,3,5.4,2
2015/4/11 5:19,3.2,3,3.3,3,2.7,4
2015/4/11 5:20,2.9,3,3.2,3,1.3,4
2015/4/11 5:21,2.8,3,2.9,3,4.8,3
2015/4/11 5:22,2.9,3,2.9,3,3.7,3
2015/4/11 5:23,3.2,3,3.2,3,7.7,5
2015/4/11 5:24,3.2,3,3.2,3,6.9,6
2015/4/11 5:25,2.9,3,3.1,3,4.9,5
2015/4/11 5:26,2.7,4,2.9,3,3.3,6
2015/4/11 5:27,2.6,4,2.7,3,6,15
2015/4/11 5:28,2.4,4,2.6,3,2.5,5
2015/4/11 5:29,2.7,4,2.7,3,7,5
2015/4/11 5:30,2.9,4,2.9,3,4.9,3
2015/4/11 5:31,3,4,3,3,4.4,3
2015/4/11 5:32,3,4,3,3,5.5,3
2015/4/11 5:33,2.8,3,3,3,4.2,16
2015/4/11 5:34,2.6,3,2.8,3,3,2
2015/4/11 5:35,2.4,2,2.6,4,1.4,15
2015/4/11 5:36,2.3,2,2.4,4,3.1,7
2015/4/11 5:37,2.2,3,2.3,4,2.9,16
2015/4/11 5:38,2.3,2,2.3,4,4.8,1
2015/4/11 5:39,2.1,2,2.3,4,5,16
2015/4/11 5:40,2,2,2.1,4,4.2,2
2015/4/11 5:41,1.8,2,2,4,2.6,2
2015/4/11 5:42,1.6,2,1.8,4,1.8,3
2015/4/11 5:43,1.6,2,1.6,3,2.7,5
2015/4/11 5:44,1.7,3,1.7,3,4.2,4
2015/4/11 5:45,1.8,3,1.8,2,4.2,5
2015/4/11 5:46,1.8,3,1.8,2,1.9,2
2015/4/11 5:47,1.8,3,1.8,3,2.1,16
2015/4/11 5:48,1.6,3,1.8,2,1.8,3
2015/4/11 5:49,1.6,3,1.6,2,1.6,5
2015/4/11 5:50,1.5,4,1.6,2,2,6
2015/4/11 5:51,1.4,4,1.5,2,1.3,8
2015/4/11 5:52,1.4,4,1.5,3,0.8,6
2015/4/11 5:53,1.3,4,1.4,3,1.5,2
2015/4/11 5:54,1.1,3,1.3,3,2.7,14
2015/4/11 5:55,1,3,1.1,3,1.4,2
2015/4/11 5:56,1,3,1,3,2.1,15
2015/4/11 5:57,0.9,3,1,3,2.1,16
2015/4/11 5:58,0.9,2,1,3,2.2,4
2015/4/11 5:59,1.3,2,1.3,3,8.7,2
2015/4/11 6:00,1.6,1,1.6,1,6.5,3
2015/4/11 6:01,1.9,1,1.9,1,6.4,2
2015/4/11 6:02,2.1,2,2.1,2,4.2,4
2015/4/11 6:03,2.3,2,2.3,2,5.4,4
2015/4/11 6:04,2.4,2,2.4,2,3.5,2
2015/4/11 6:05,2.6,3,2.6,3,4.2,3
2015/4/11 6:06,2.6,3,2.7,3,2.2,6
2015/4/11 6:07,2.8,3,2.8,3,3.2,4
2015/4/11 6:08,2.9,4,2.9,4,2.7,8
2015/4/11 6:09,2.5,4,2.8,4,2.7,6
2015/4/11 6:10,2.2,4,2.5,4,2,6
2015/4/11 6:11,1.9,5,2.2,4,1,8
2015/4/11 6:12,1.7,4,1.8,4,1.9,2
2015/4/11 6:13,1.5,4,1.7,4,1.6,2
2015/4/11 6:14,1.5,4,1.5,4,3.5,3
2015/4/11 6:15,1.3,4,1.4,4,2.5,2
2015/4/11 6:16,1.3,5,1.3,4,1.8,9
2015/4/11 6:17,1.2,4,1.2,4,3,3
2015/4/11 6:18,1.2,4,1.2,4,2.4,3
2015/4/11 6:19,1,3,1.2,4,3.2,16
2015/4/11 6:20,1,3,1,4,2,3
2015/4/11 6:21,1.1,3,1.1,5,1.5,3
2015/4/11 6:22,1.1,4,1.1,4,1.5,3
2015/4/11 6:23,1.1,4,1.1,4,1.4,5
2015/4/11 6:24,0.9,5,1,4,1.1,5
2015/4/11 6:25,1,5,1,4,2.4,6
2015/4/11 6:26,1,5,1,5,1.9,5
2015/4/11 6:27,1,5,1,4,1.4,5
2015/4/11 6:28,0.9,5,0.9,4,1.5,5
2015/4/11 6:29,0.9,6,0.9,3,1.5,6
2015/4/11 6:30,1,6,1,3,1.9,6
2015/4/11 6:31,1.1,6,1.1,3,2.9,6
2015/4/11 6:32,1.1,6,1.1,4,2.2,6
2015/4/11 6:33,1.2,6,1.2,6,2.5,7
2015/4/11 6:34,1.3,6,1.3,6,3,8
2015/4/11 6:35,1.3,6,1.3,6,3.1,7
2015/4/11 6:36,1.4,7,1.4,6,3.2,7
2015/4/11 6:37,1.5,7,1.5,7,2.7,7
2015/4/11 6:38,1.7,7,1.7,7,3.5,7
2015/4/11 6:39,1.8,7,1.8,7,3.5,7
2015/4/11 6:40,1.8,7,1.8,7,2.5,8
2015/4/11 6:41,1.7,7,1.8,7,2.1,7
2015/4/11 6:42,1.7,7,1.7,7,1.5,6
2015/4/11 6:43,1.6,7,1.7,7,2.5,6
2015/4/11 6:44,1.6,7,1.6,7,3.3,5
2015/4/11 6:45,1.7,6,1.7,7,3.3,4
2015/4/11 6:46,1.7,6,1.7,7,3.8,5
2015/4/11 6:47,1.6,6,1.7,7,2.1,3
2015/4/11 6:48,1.6,5,1.6,7,2.2,3
2015/4/11 6:49,1.4,5,1.5,7,1.6,5
2015/4/11 6:50,1.4,5,1.4,7,1.6,4
2015/4/11 6:51,1.4,5,1.4,7,1.9,5
2015/4/11 6:52,1.4,5,1.4,7,2.5,6
2015/4/11 6:53,1.4,4,1.5,7,2.1,4
2015/4/11 6:54,1.2,4,1.4,7,1.4,2
2015/4/11 6:55,1.1,4,1.2,6,2.2,6
2015/4/11 6:56,1,4,1.1,6,1.8,7
2015/4/11 6:57,1,5,1,6,2.6,7
2015/4/11 6:58,1,5,1.1,5,2.2,6
2015/4/11 6:59,1.1,6,1.1,5,2,6
2015/4/11 7:00,1.1,6,1.1,5,1.4,6
2015/4/11 7:01,1.1,6,1.1,5,1.1,6
2015/4/11 7:02,1,6,1,5,1,3
2015/4/11 7:03,1,6,1,4,0.9,3
2015/4/11 7:04,0.9,6,1,4,0.1,1
2015/4/11 7:05,0.9,6,0.9,4,0.8,2
2015/4/11 7:06,0.8,5,0.9,5,0.8,3
2015/4/11 7:07,0.7,5,0.8,5,1.8,5
2015/4/11 7:08,0.7,5,0.7,5,1.8,6
2015/4/11 7:09,0.6,4,0.7,6,1.4,4
2015/4/11 7:10,0.7,4,0.7,6,1.9,4
2015/4/11 7:11,0.9,4,0.9,6,3.8,3
2015/4/11 7:12,1,4,1,6,3.5,4
2015/4/11 7:13,1.1,4,1.1,4,2.9,1
2015/4/11 7:14,1.2,4,1.2,4,1.9,2
2015/4/11 7:15,1.4,4,1.4,4,2.9,6
2015/4/11 7:16,1.5,4,1.5,4,3.6,3
2015/4/11 7:17,1.6,4,1.6,4,3.3,5
2015/4/11 7:18,1.7,4,1.7,4,3.7,7
2015/4/11 7:19,1.8,4,1.8,4,3,8
2015/4/11 7:20,1.8,5,1.8,4,2.9,9
2015/4/11 7:21,1.6,5,1.8,4,1.4,6
2015/4/11 7:22,1.5,6,1.6,4,2.4,8
2015/4/11 7:23,1.5,7,1.5,4,3,8
2015/4/11 7:24,1.5,7,1.5,4,2,9
2015/4/11 7:25,1.3,7,1.5,4,0.9,1
2015/4/11 7:26,1.1,7,1.3,4,0.6,4
2015/4/11 7:27,1,7,1.1,4,1.3,4
2015/4/11 7:28,0.8,7,1,4,1,10
2015/4/11 7:29,0.8,7,0.8,4,2.5,10
2015/4/11 7:30,0.8,7,0.8,5,1.6,8
2015/4/11 7:31,0.7,7,0.8,5,1.1,9
2015/4/11 7:32,0.6,8,0.7,6,0.8,13
2015/4/11 7:33,0.5,7,0.6,7,0.6,5
2015/4/11 7:34,0.5,6,0.5,7,1.3,5
2015/4/11 7:35,0.7,6,0.7,7,3.7,2
2015/4/11 7:36,0.9,5,0.9,7,5.2,3
2015/4/11 7:37,1,4,1,7,2.9,2
2015/4/11 7:38,1.1,5,1.1,5,3,4
2015/4/11 7:39,1.1,4,1.1,5,4.1,8
2015/4/11 7:40,1.4,5,1.4,5,4.8,8
2015/4/11 7:41,1.5,5,1.5,5,3.1,6
2015/4/11 7:42,1.5,4,1.5,5,1.8,1
2015/4/11 7:43,1.6,4,1.6,4,1.9,2
2015/4/11 7:44,1.6,4,1.6,4,3.2,2
2015/4/11 7:45,1.5,4,1.6,4,2,1
2015/4/11 7:46,1.4,4,1.5,4,1.3,1
2015/4/11 7:47,1.3,3,1.4,4,1.8,15
2015/4/11 7:48,1.4,3,1.4,4,4.4,3
2015/4/11 7:49,1.4,2,1.4,4,3,3
2015/4/11 7:50,1.3,2,1.4,4,4.9,1
2015/4/11 7:51,1.5,2,1.5,4,6.2,1
2015/4/11 7:52,1.6,2,1.6,4,2.6,1
2015/4/11 7:53,1.6,2,1.6,4,1.9,3
2015/4/11 7:54,1.6,2,1.6,4,2.6,1
2015/4/11 7:55,1.6,1,1.6,2,1.8,1
2015/4/11 7:56,1.6,1,1.6,2,0.9,8
2015/4/11 7:57,1.5,1,1.6,2,1.4,10
2015/4/11 7:58,1.3,16,1.5,2,0.5,12
2015/4/11 7:59,1.2,1,1.3,2,0.6,7
2015/4/11 8:00,1,16,1.2,2,0.8,11
2015/4/11 8:01,0.8,6,1,2,1.6,5
2015/4/11 8:02,0.7,7,0.8,2,1.5,6
2015/4/11 8:03,0.7,8,0.7,2,1.3,5
2015/4/11 8:04,0.6,8,0.7,2,1.5,1
2015/4/11 8:05,0.8,9,0.8,1,5.2,16
2015/4/11 8:06,0.8,7,0.8,1,2.4,16
2015/4/11 8:07,0.9,5,0.9,1,2.2,3
2015/4/11 8:08,1,5,1,16,2.4,6
2015/4/11 8:09,1.3,4,1.3,4,4.3,2
2015/4/11 8:10,1.5,4,1.5,4,3.6,6
2015/4/11 8:11,1.7,4,1.7,4,3.6,3
2015/4/11 8:12,1.9,3,1.9,3,6.3,3
2015/4/11 8:13,2.1,3,2.1,3,4.9,4
2015/4/11 8:14,2.3,4,2.3,3,3.7,3
2015/4/11 8:15,2.3,4,2.3,3,4.1,2
2015/4/11 8:16,2.3,3,2.3,3,2.1,2
2015/4/11 8:17,2.4,3,2.4,3,3.6,3
2015/4/11 8:18,2.4,3,2.4,3,3,3
2015/4/11 8:19,2.4,3,2.4,3,3.7,3
2015/4/11 8:20,2.2,3,2.4,3,2.6,3
2015/4/11 8:21,2.2,3,2.3,3,4.9,3
2015/4/11 8:22,2.2,3,2.3,3,5,4
2015/4/11 8:23,2.3,3,2.3,3,5.7,4
2015/4/11 8:24,2.4,3,2.4,3,4.9,3
2015/4/11 8:25,2.3,3,2.3,3,3,3
2015/4/11 8:26,2.5,3,2.5,3,4.8,1
2015/4/11 8:27,2.6,2,2.6,2,4.8,16
2015/4/11 8:28,2.8,2,2.8,2,8.9,1
2015/4/11 8:29,2.7,2,2.8,2,2.1,16
2015/4/11 8:30,2.7,2,2.7,2,2.6,16
2015/4/11 8:31,2.6,2,2.7,2,4.2,2
2015/4/11 8:32,2.6,1,2.6,2,4.4,2
2015/4/11 8:33,2.6,1,2.7,2,6.3,1
2015/4/11 8:34,2.5,1,2.6,2,5,3
2015/4/11 8:35,2.7,1,2.7,2,7,1
2015/4/11 8:36,2.6,1,2.7,2,4.5,1
2015/4/11 8:37,2.5,1,2.6,2,3.3,3
2015/4/11 8:38,2.4,2,2.4,2,5,3
2015/4/11 8:39,2.5,2,2.5,2,3.6,5
2015/4/11 8:40,2.5,2,2.5,2,2.2,6
2015/4/11 8:41,2.4,2,2.5,1,1.3,14
2015/4/11 8:42,2.1,2,2.3,1,1.4,4
2015/4/11 8:43,1.8,2,2.1,1,1.1,5
2015/4/11 8:44,1.7,3,1.8,1,1.8,6
2015/4/11 8:45,1.4,3,1.6,1,1.3,7
2015/4/11 8:46,1.3,3,1.4,1,1.9,12
2015/4/11 8:47,1.2,2,1.3,2,1.6,12
2015/4/11 8:48,1,14,1.1,2,1.8,15
2015/4/11 8:49,0.9,14,1,2,3.1,16
2015/4/11 8:50,0.9,14,0.9,2,2.9,13
2015/4/11 8:51,0.9,14,0.9,2,0.4,7
2015/4/11 8:52,0.9,14,0.9,2,2.7,3
2015/4/11 8:53,1.1,14,1.1,2,3.9,3
2015/4/11 8:54,1.1,15,1.1,3,1.8,4
2015/4/11 8:55,1.2,15,1.2,3,2.5,11
2015/4/11 8:56,1.2,16,1.2,3,1.8,11
2015/4/11 8:57,1.3,1,1.3,1,3,2
2015/4/11 8:58,1.5,2,1.5,2,4.7,2
2015/4/11 8:59,1.7,2,1.7,2,6.4,1
2015/4/11 9:00,1.8,2,1.8,2,5.2,14
2015/4/11 9:01,1.8,2,1.8,2,1.8,12
2015/4/11 9:02,1.9,1,1.9,2,4.2,14
2015/4/11 9:03,1.8,1,1.9,2,3.2,1
2015/4/11 9:04,1.8,1,1.8,2,3.1,4
2015/4/11 9:05,1.9,2,1.9,2,2.2,3
2015/4/11 9:06,2,2,2,2,3.2,3
2015/4/11 9:07,2,2,2,2,2.4,4
2015/4/11 9:08,1.8,2,2,2,3.3,2
2015/4/11 9:09,1.7,2,1.8,2,3.5,3
2015/4/11 9:10,1.6,2,1.7,2,2.1,4
2015/4/11 9:11,1.5,3,1.5,2,0.8,8
2015/4/11 9:12,1.4,3,1.5,2,0.9,15
2015/4/11 9:13,1.3,3,1.4,2,2.1,1
2015/4/11 9:14,1.3,3,1.4,2,2.6,1
2015/4/11 9:15,1.4,2,1.4,2,8.1,16
2015/4/11 9:16,1.7,2,1.7,2,6.7,2
2015/4/11 9:17,2.1,1,2.1,1,10.5,16
2015/4/11 9:18,2.4,1,2.4,1,7.8,16
2015/4/11 9:19,3,1,3,1,11.7,2
2015/4/11 9:20,3.7,1,3.7,1,12.7,1
2015/4/11 9:21,4.1,16,4.1,16,5.8,16
2015/4/11 9:22,4.5,16,4.5,16,8.4,2
2015/4/11 9:23,5.2,16,5.2,16,14.1,16
2015/4/11 9:24,5.3,16,5.3,16,5.2,2
2015/4/11 9:25,5.4,16,5.4,16,7.8,16
2015/4/11 9:26,5.5,16,5.5,16,8.6,1
2015/4/11 9:27,5.1,16,5.5,16,3.6,16
2015/4/11 9:28,4.7,1,5,16,3,4
2015/4/11 9:29,4.3,16,4.6,16,7.6,15
2015/4/11 9:30,4,16,4.2,16,10.8,16
2015/4/11 9:31,4.1,1,4.1,16,9.8,3
2015/4/11 9:32,4.1,1,4.2,16,7.8,16
2015/4/11 9:33,3.5,1,4,16,3.8,15
2015/4/11 9:34,3.6,1,3.6,16,5.4,15
2015/4/11 9:35,3.6,1,3.6,16,7,15
2015/4/11 9:36,3.6,1,3.6,16,8.1,16
2015/4/11 9:37,3.7,16,3.7,16,5.7,1
2015/4/11 9:38,3.8,16,3.8,1,4.1,1
2015/4/11 9:39,3.8,16,3.8,16,7.6,15
2015/4/11 9:40,3.8,16,4,1,8.4,16
2015/4/11 9:41,3.8,16,3.8,1,9.7,1
2015/4/11 9:42,3.8,16,3.8,1,9.7,1
2015/4/11 9:43,4.3,16,4.3,16,11.8,15
2015/4/11 9:44,4.5,16,4.5,16,9.9,16
2015/4/11 9:45,4.7,16,4.7,16,11,16
2015/4/11 9:46,4.9,16,4.9,16,10.1,2
2015/4/11 9:47,4.9,16,5,16,6.5,16
2015/4/11 9:48,5.2,16,5.2,16,9.8,16
2015/4/11 9:49,5.1,16,5.2,16,6.7,16
2015/4/11 9:50,5.1,16,5.1,16,8.3,15
2015/4/11 9:51,5.1,16,5.2,16,9.5,15
2015/4/11 9:52,5.3,16,5.3,16,11.6,1
2015/4/11 9:53,5.2,16,5.4,16,10.7,1
2015/4/11 9:54,5,16,5.1,16,9.3,16
2015/4/11 9:55,4.9,16,5,16,11.3,1
2015/4/11 9:56,5,16,5,16,10.3,16
2015/4/11 9:57,5,16,5,16,7.2,1
2015/4/11 9:58,4.9,16,5.1,16,6.9,16
2015/4/11 9:59,4.9,1,4.9,16,7.5,1
2015/4/11 10:00,4.6,1,4.9,16,7.4,14
2015/4/11 10:01,4.6,1,4.7,16,7.1,16
2015/4/11 10:02,4.3,1,4.5,16,6,16
2015/4/11 10:03,4.1,1,4.3,16,5.5,1
2015/4/11 10:04,4,1,4.1,16,4.5,1
2015/4/11 10:05,3.7,16,3.9,16,3.3,15
2015/4/11 10:06,3.3,16,3.6,16,7.2,16
2015/4/11 10:07,3.1,16,3.3,16,4.4,16
2015/4/11 10:08,3.1,16,3.2,16,6.2,1
2015/4/11 10:09,3,16,3.1,1,5.8,16
2015/4/11 10:10,3.1,16,3.1,1,6.2,16
2015/4/11 10:11,3,16,3.1,1,7.4,16
2015/4/11 10:12,2.9,16,3.1,1,4.5,14
2015/4/11 10:13,2.9,16,2.9,1,7.1,15
2015/4/11 10:14,2.9,16,2.9,1,6.2,16
2015/4/11 10:15,3,16,3,16,5.4,15
2015/4/11 10:16,2.9,16,3,16,3.7,14
2015/4/11 10:17,2.9,16,3,16,4.2,15
2015/4/11 10:18,2.7,16,2.9,16,3.5,3
2015/4/11 10:19,2.6,16,2.7,16,6.2,16
2015/4/11 10:20,2.5,16,2.6,16,7,16
2015/4/11 10:21,2.5,15,2.5,16,5.8,16
2015/4/11 10:22,2.5,15,2.5,16,6.1,15
2015/4/11 10:23,2.4,15,2.5,16,5,16
2015/4/11 10:24,2.1,15,2.4,16,3.5,1
2015/4/11 10:25,2.3,16,2.3,16,7.2,2
2015/4/11 10:26,2.3,16,2.4,16,7,1
2015/4/11 10:27,2.2,16,2.3,16,2.5,13
2015/4/11 10:28,2.3,15,2.3,16,4.8,14
2015/4/11 10:29,2.5,16,2.5,16,7.9,1
2015/4/11 10:30,2.8,16,2.8,16,7.7,16
2015/4/11 10:31,2.9,16,2.9,16,6.3,15
2015/4/11 10:32,2.9,16,2.9,16,5.4,1
2015/4/11 10:33,2.9,16,2.9,16,4.1,13
2015/4/11 10:34,3,16,3,16,4.8,11
2015/4/11 10:35,2.7,15,3,16,4.8,12
2015/4/11 10:36,2.6,15,2.7,16,3.5,1
2015/4/11 10:37,2.6,15,2.7,16,3.1,16
2015/4/11 10:38,2.6,16,2.7,16,4.3,3
2015/4/11 10:39,2.3,16,2.6,16,2.2,4
2015/4/11 10:40,1.9,16,2.3,16,2,3
2015/4/11 10:41,1.7,1,1.8,16,2.9,3
2015/4/11 10:42,1.6,2,1.7,16,3,3
2015/4/11 10:43,1.6,2,1.7,16,4.2,9
2015/4/11 10:44,1.6,3,1.7,16,3.5,4
2015/4/11 10:45,1.6,3,1.6,15,3.3,13
2015/4/11 10:46,1.6,4,1.6,15,3.1,9
2015/4/11 10:47,1.6,5,1.6,15,4.5,13
2015/4/11 10:48,1.7,5,1.7,16,4.4,16
2015/4/11 10:49,1.9,3,1.9,16,7.4,16
2015/4/11 10:50,2.2,2,2.2,3,8.1,16
2015/4/11 10:51,2.2,16,2.2,3,4.7,13
2015/4/11 10:52,2.1,14,2.2,3,2.2,1
2015/4/11 10:53,2.4,14,2.4,14,9,1
2015/4/11 10:54,2.7,15,2.7,15,8.5,15
2015/4/11 10:55,2.9,15,2.9,15,8.1,14
2015/4/11 10:56,3,15,3.1,15,4.3,15
2015/4/11 10:57,2.9,15,3,15,1.5,16
2015/4/11 10:58,2.7,15,2.9,15,1,8
2015/4/11 10:59,2.4,14,2.7,15,0.6,10
2015/4/11 11:00,2.1,14,2.4,15,3.1,15
2015/4/11 11:01,2.1,14,2.2,15,3.5,1
2015/4/11 11:02,2.3,14,2.3,15,4.9,14
2015/4/11 11:03,2.1,14,2.3,15,5.2,1
2015/4/11 11:04,2,15,2.1,15,6.7,1
2015/4/11 11:05,1.9,15,2,15,6,16
2015/4/11 11:06,1.9,16,1.9,15,2.9,16
2015/4/11 11:07,2,16,2,15,2.6,2
2015/4/11 11:08,2,16,2,15,1.1,1
2015/4/11 11:09,2,16,2,14,2,1
2015/4/11 11:10,2,1,2,14,1.6,1
2015/4/11 11:11,1.9,1,2,14,2.2,1
2015/4/11 11:12,1.9,1,1.9,14,4.5,16
2015/4/11 11:13,1.7,16,1.9,14,2,13
2015/4/11 11:14,1.7,1,1.7,15,4.9,8
2015/4/11 11:15,1.4,16,1.6,16,2.9,8
2015/4/11 11:16,1.4,16,1.4,16,5.6,15
2015/4/11 11:17,1.4,1,1.4,16,3.3,16
2015/4/11 11:18,1.5,1,1.5,16,2.6,4
2015/4/11 11:19,1.7,16,1.7,16,5.1,15
2015/4/11 11:20,1.7,16,1.7,1,2.5,7
2015/4/11 11:21,1.6,15,1.7,1,0.6,7
2015/4/11 11:22,1.5,2,1.6,1,2.2,6
2015/4/11 11:23,1.5,5,1.5,16,1.9,7
2015/4/11 11:24,1.2,1,1.5,1,1.5,14
2015/4/11 11:25,1.3,16,1.3,1,3.6,16
2015/4/11 11:26,1.2,2,1.3,1,2.2,4
2015/4/11 11:27,1.2,16,1.2,1,3.5,14
2015/4/11 11:28,1.3,15,1.3,1,8.1,16
2015/4/11 11:29,1.3,15,1.4,16,8.7,16
2015/4/11 11:30,1.7,15,1.7,16,7.5,15
2015/4/11 11:31,2.1,15,2.1,15,6.5,14
2015/4/11 11:32,2.2,15,2.2,15,5.8,16
2015/4/11 11:33,2.6,15,2.6,15,10.5,16